Hourly Data Report for April 17, 2020

MIRAMICHI RCS
NEW BRUNSWICK
Current Station Operator: ECCC - MSC

47°00'34.000" N
65°27'54.000" W
33.00 m
8100989
71744
ACQ

Download Data

Hourly Data (April 2020)
Hourly Data Report for April 17, 2020
TIME
LST
Temp Definition
°C
Dew Point Definition
°C
Rel Hum Definition
%
Precip. Amount Definition
mm

Wind Dir Definition
10's deg

Wind Spd Definition
km/h
Visibility Definition
km
Stn Press Definition
kPa
Hmdx Definition


Wind Chill Definition


Weather Definition


00:00 -3.5 -10.7 57 LegendMM 26 7   100.76   -6 LegendNANA
01:00 -4.0 -10.6 60 LegendMM 26 8   100.76   -7 LegendNANA
02:00 -4.4 -10.6 62 LegendMM 26 8   100.74   -8 LegendNANA
03:00 -4.9 -10.1 67 LegendMM 26 9   100.74   -9 LegendNANA
04:00 -5.4 -9.7 72 LegendMM 26 9   100.74   -9 LegendNANA
05:00 -5.6 -10.4 69 LegendMM 25 10   100.74   -10 LegendNANA
06:00 -5.4 -10.4 68 LegendMM 25 9   100.78   -9 LegendNANA
07:00 -3.2 -9.9 60 LegendMM 27 12   100.80   -8 LegendNANA
08:00 -0.5 -9.0 53 LegendMM 26 15   100.79   -5 LegendNANA
09:00 2.3 -9.7 41 LegendMM 28 17   100.78     LegendNANA
10:00 3.1 -11.0 35 LegendMM 25 19   100.72     LegendNANA
11:00 4.0 -10.9 33 LegendMM 27 20   100.67     LegendNANA
12:00 4.5 -12.3 28 LegendMM 27 19   100.60     LegendNANA
13:00 5.1 -11.8 28 LegendMM 28 25   100.53     LegendNANA
14:00 5.5 -11.2 29 LegendMM 27 25   100.47     LegendNANA
15:00 5.2 -11.2 29 LegendMM 26 24   100.42     LegendNANA
16:00 4.3 -7.2 43 LegendMM 27 33   100.45     LegendNANA
17:00 4.9 -6.9 42 LegendMM 28 19   100.49     LegendNANA
18:00 3.2 -6.8 48 LegendMM 29 16   100.54     LegendNANA
19:00 2.2 -6.3 54 LegendMM 30 21   100.62     LegendNANA
20:00 1.0 -6.0 60 LegendMM 29 11   100.73     LegendNANA
21:00 0.3 -7.4 56 LegendMM 27 9   100.82     LegendNANA
22:00 -1.1 -6.9 65 LegendMM 27 6   100.87   -3 LegendNANA
23:00 -2.0 -6.7 70 LegendMM 27 5   100.94   -4 LegendNANA

Notes on Data Quality.

Legend

  • E = Estimated
  • M = Missing
  • NA = Not Available*
  • [empty] = Indicates an unobserved value
Date modified: